Погода Баяндай

Погода Баяндай : погода сейчас, прогноз погоды и архив. Всё, что Вы хотите узнать о погоде Баяндай!

Хотите узнать прогноз погоды Баяндай? Тогда Вам сюда: Погода Баяндай

Поиск расширенной информации на нашем сайте:

Другие новости

Новости СМИ2

Главная страница сайта

Новости сайта

03.07.2017

Напоминаем, что на нашем специализированном сайте Метеоцентр.Азия вы можете получить высокодетализированные автоматические прогнозы погоды по пунктам России, СНГ и мира в авиационном формате (включающие направление и скорость ветра, видимость, явления погоды, количество и форму облачности, нижнюю и верхнюю границу облачности).


Погода Баяндай - сегодня

Время (UTC), дата Ветер
(°,м/с) 
Видим.   Явления Облачность Т
(°С)
Тd
(°С)
f(%) Тe
(°С)
Pmin
(гПа)
dP
(гПа)
Po
(мм)
O2
(г/м3)
Тmin Tmax R s Состояние
почвы
18 19.10.17 030 (СВ) 20000 м    ясно 
-1.7 -7.8 63 -3  1024.5  0.6  699  284           
21 19.10.17 040 (СВ) 20000 м    ясно 
-6.3 -9.5 78 -8  1027.7  0.6  700  289           
00 20.10.17 040 (СВ) 20000 м    ясно 
-6.9 -8.6 88 -8  1028.8  0.7  700  290  -7.1         
03 20.10.17 070 (В) 20000 м    ясно 
-3.7 -6.6 80 -5  1027.7  0.2  701  287           
06 20.10.17 100 (В) 20000 м    1/0 верхняя 
[Ci fib]
+2.3 -10.7 38 +2  1023.8  -1.7  699  280           
09 20.10.17 070 (В) 20000 м    9/0 верхняя 
[Ci fib]
+2.7 -8 45 +2  1021.9  -1.6  698  279           
12 20.10.17 050 (СВ) 20000 м    ясно 
-1.3 -1.1 100 -2  1022.7  -0.5  698  282    +4.1       
15 20.10.17 040 (СВ) 20000 м    ясно 
-2.7 -8.8 63 -5  1023.2  698  285           
18 20.10.17 040 (СВ) 20000 м    4/0 верхняя 
[Ci fib]
-4.1 -10 63 -6  1023.4  -0.3  698  286           
21 20.10.17 040 (СВ) 20000 м    10/0 верхняя 
[Ci fib]
-4.7 -9.5 69 -6  1024.6  0.8  698  287           
00 21.10.17 010 (С) 20000 м  слаб. ливневой снег  10/10 600 м кучево-дожд. 
[Cb cap]
-4.6 -7.7 79 -4  1025.2  0.6  699  287  -5.5    0.0  <0.5  равномерный
сухой снег
100% 
03 21.10.17 060 (СВ) 20000 м  {ливн. осадки}  10/10 600 м кучево-дожд. 
[Cb calv]
-2.7 -4.3 89 -2  1025  0.5  699  285           
06 21.10.17 210 (ЮЗ) 20000 м  {ливн. осадки}  10/10 600 м кучево-дожд. 
[Cb calv]
+0.2 -0.9 92 +1  1024  0.1  699  281           
09 21.10.17 200 (Ю) 20000 м    10/8 600 м кучево-дожд., верхняя 
[Cb calv|Ci fib]
+1.8 +0.2 89 +1  1023.4  699  280           
12 21.10.17 050 (СВ) 20000 м    1/0 верхняя 
[Ci fib]
-1.2 -1.2 100 -1  1025.4  0.8  700  283    +2.2  0.0     
15 21.10.17 030 (СВ) 20000 м    ясно 
-2 -2.3 98 -3  1024.9  -0.7  699  284           
18 21.10.17 040 (СВ) 0500 м  туман  ясно 
-2.9 -3.3 97 -4  1024.4  -0.7  699  285           
21 21.10.17 030 (СВ) 20000 м  {туман}  4/0 средняя, верхняя 
[Ac lent|Ci fib]
-3.4 -4.2 94 -3  1023.3  -1.2  698  285           
00 22.10.17 040 (СВ) 20000 м    10/0 средняя 
[Ac As]
-2.3 -2.6 98 -2  1022.6  -0.2  698  284  -4.9         
03 22.10.17 030 (СВ) 20000 м    10/0 средняя, верхняя 
[Ac As|Cs]
+0.5 +0.2 98 1021.8  0.1  698  280           
06 22.10.17 190 (Ю) 20000 м    10/0 средняя, верхняя 
[As op|Cs]
+5.5 +0.9 72 +6  1018.7  -1.2  697  275           
09 22.10.17 130 (ЮВ) 20000 м    10/0 средняя, верхняя 
[Ac lent|Cs]
+6.1 +0.5 67 +6  1017.6  -0.9  696  274           
12 22.10.17 050 (СВ) 20000 м    6/0 средняя, верхняя 
[Ac lent|Cs]
+1.7 -1.4 80 +2  1018.7  -0.4  696  279    +7       
15 22.10.17 060 (СВ) 20000 м    8/0 средняя, верхняя 
[Ac As|Ci fib]
+0.6 -2.3 81 +1  1017.6  -1.3  695  279           
18 22.10.17 040 (СВ) 20000 м    4/0 средняя, верхняя 
[Ac lent|Ci fib]
+0.2 -1.8 86 +1  1015.5  -2  693  279           
Время (UTC), дата Ветер
(°,м/с) 
Видим.   Явления Облачность Т
(°С)
Тd
(°С)
f(%) Тe
(°С)
Pmin
(гПа)
dP
(гПа)
Po
(мм)
O2
(г/м3)
Тmin Tmax R s Состояние
почвы

Для получения пояснительной информации подведите курсор к названию столбца.

ПОГОДА Баяндай - архив

Всё, что Вы хотите узнать о погоде Баяндай - удобно и подробно!

Выберите нужную дату (начиная с 1 января 2015* года) и нажмите кнопку "Найти".
Будут отображены архивные сводки погоды по пункту Баяндай, начиная с указанной даты.


Отображать данные в формате CSV (для использования в таблицах Excel)


Внимание! Наш архив погоды предназначен исключительно для личного некоммерческого использования в познавательных целях. Если Вам необходимы официальные справки о состоянии погоды (для производственных, юридических, коммерческих и т.п. целей), обращайтесь в органы Росгидромета.

*Примечание: данная дата относится к архиву по метеостанциям СССР (Россия, СНГ, Балтия).
Архив по метеостанциям Зарубежной Европы и Азии (кроме Китая) хранится 10 дней, по другим регионам земного шара (Китай, Африка, Америка, Австралия, Океания) - 1 день.

Баяндай - район местоположения метеостанции


Название, широта, долгота, высота метеостанции:
Баяндай 53.1°ш. 105.5°д. 762 м над ур. моря [Российская Федерация]

Дополнительная информация

В oтличие oт бoльшинства пoгoдных сайтoв мы публикуем пoдрoбную метеoинфoрмацию в детальнoм прoфессиoнальнoм фoрмате.

Характеристики температуры и влажнoсти вoздуха измеряются на высoте 2 м в тени вдали oт зданий и деревьев.
Скoрoсть ветра измеряется на высoте 10 м (на урoвне рoста челoвека скoрoсть ветра ниже в 1.5-2 раза). Если метеoстанция нахoдится в гoрoде или в лесу, тo скoрoсть ветра занижена на 2-4 м/с пo сравнению с oткрытым местoм. Скoрoсть ветра над акватoриями крупных рек и oзёр, а также на вершинах хoлмoв на 2-5 м/с выше, чем в oбычных услoвиях.
Атмoсфернoе давление в разных тoчках местнoсти мoжет значительнo oтличаться oт давления на метеoстанции, в зависимoсти oт услoвий рельефа (при пoдъёме на 10 м давление пoнижается примернo на 1 мм рт.ст.).